Location: Unspecified
(40.7945°N, 0.0000°E)
Time: 19:59:49
(UTC+00:00)

Explorer 7 - Pass Details

Date: 18 June 2021
Orbit: 484 x 676 km, 50.3° (Epoch: 28 July)

Event Time Altitude Azimuth Distance (km) Brightness Sun altitude
Rises 20:26:32 0° 215° (SW) 3,005 10.5 -8.7°
Reaches altitude 10° 20:28:58 10° 209° (SSW) 2,100 9.6 -9.1°
Maximum altitude 20:33:35 44° 138° (SE) 935 7.5 -9.7°
Drops below altitude 10° 20:38:10 10° 67° (ENE) 2,086 9.5 -10.3°
Sets 20:40:34 0° 61° (ENE) 2,983 10.4 -10.7°
